sat.trackr.live / text

‹ back to catalog

STARLINK-11265 [DTC]

NORAD 60909 · 2024-154G

PAYLOAD ACTIVE UNKNOWN

§ Identity

Operator
Country
US
Launch date
2024-08-31
Launch site
AFETR
Launch vehicle
Mass (kg)
RCS (m²)

Purposes: comms

External: N2YO · Heavens-Above · Gunter

§ Orbital elements

Epoch: 2026-09-20T23:46:14.760768Z

Period
91.74 min
Inclination
53.1591°
Eccentricity
0.0000952
Mean motion
15.69725981 rev/d
Perigee alt
359.0 km
Apogee alt
360.3 km
Semi-major
6,737.8 km
B*
2.1143e-5
RAAN
248.8628°
Arg perigee
86.8484°
Mean anomaly
273.2643°
Rev number
11,918

§ Raw data

STARLINK-11265 [DTC]1 60909U 24154G   26263.99044862  .00001975  00000+0  21143-4 0  99972 60909  53.1591 248.8628 0000952  86.8484 273.2643 15.69725981119182

JSON: /api/v1/satellites/60909 · /tle

For live sub-satellite position, see the globe view (requires WebGL).

§ Visibility from observer

Set your observer location to see the next 7 days of passes ≥ 10°. The values pass through the URL so the page stays shareable.

No JS? Fill the form by hand. The geolocation button needs JavaScript.